Regional Weather Roundup
Issued by NWS Upton, NY

Home | Current Version | Previous Version | Text Only | Print | Product List | Glossary On
Versions: 1 2 3 4 5 6 7 8 9 10 11 12 13 14 15 16 17 18 19 20 21 22 23 24 25 26 27 28 29 30 31 32 33 34 35 36 37 38 39 40 41 42 43 44 45 46 47 48 49 50
000
ASUS41 KOKX 261505
RWROKX

REGIONAL WEATHER ROUNDUP
NATIONAL WEATHER SERVICE NEW YORK NY
1100 AM EDT SAT JUL 26 2014

NOTE: "FAIR" INDICATES FEW OR NO CLOUDS BELOW 12,000 FEET WITH NO
SIGNIFICANT WEATHER AND/OR OBSTRUCTIONS TO VISIBILITY.

NYZ071-072-176-178-NJZ106-104-261600-
NEW YORK CITY METRO AREA


CITY           SKY/WX    TMP DP  RH WIND       PRES   REMARKS
CENTRAL PARK   CLOUDY    74  61  63 W3        30.02S
LAGUARDIA APRT CLOUDY    77  58  51 SW8       29.99S
KENNEDY INTL   CLOUDY    76  59  55 SW9       30.01S
NEWARK/LIBERTY LGT RAIN  76  61  59 SW14      30.00R
BRNX BOT. GARD   N/A     77  57  50 W8        30.01S
TETERBORO      CLOUDY    78  60  53 W9        29.99R
$$

NYZ177-179-078>081-261600-
LONG ISLAND NEW YORK

CITY           SKY/WX    TMP DP  RH WIND       PRES   REMARKS
FARMINGDALE    PTSUNNY   76  57  51 SW9       30.00S
ISLIP          PTSUNNY   78  58  49 SW9       29.98F
SHIRLEY        MOSUNNY   76  62  62 S12       30.01S
WESTHAMPTON    MOSUNNY   78  58  49 SW9       30.01F
MONTAUK POINT    N/A     77  67  71 VRB6      30.01S
$$

NYZ052-065-067-261600-
HUDSON VALLEY

CITY           SKY/WX    TMP DP  RH WIND       PRES   REMARKS
WHITE PLAINS   PTSUNNY   74  58  57 SW3       30.00S
NEWBURGH       PTSUNNY   72  61  68 SW12      30.00S
MONTGOMERY     CLOUDY    72  60  66 SW3       29.98F
POUGHKEEPSIE   PTSUNNY   75  59  57 SW3       29.97S
ALBANY         PTSUNNY   74  57  55 CALM      29.96F
$$

NJZ001-105-106-008-010-013-015-019>022-104-261600-
NEW JERSEY

CITY           SKY/WX    TMP DP  RH WIND       PRES   REMARKS
NEWARK/LIBERTY LGT RAIN  76  61  59 SW14      30.00R
TETERBORO      CLOUDY    78  60  53 W9        29.99R
CALDWELL       LGT RAIN  72  59  63 SW3       30.00S
MORRISTOWN     CLOUDY    72  63  73 S6        30.00S
SOMERVILLE     CLOUDY    72  62  71 CALM      29.99S
LINDEN         CLOUDY    76  62  60 CALM      30.00F
SUSSEX         CLOUDY    71  59  65 CALM      29.99F
ANDOVER          N/A     70  61  73 SW3       30.00F
TRENTON        CLOUDY    70  64  81 VRB3      30.00F
MILLVILLE      CLOUDY    75  69  81 S5        30.01F
ATLANTIC CITY  CLOUDY    77  65  66 SW7       30.00F
WRIGHTSTOWN    CLOUDY    72  66  83 W6        30.00S
TOMS RIVER     PTSUNNY   77  63  61 W3        30.02R
BELMAR         PTSUNNY   75  63  64 SW8       30.02R
$$

PAZ047>061-062-071-261600-
EASTERN PENNSYLVANIA

CITY           SKY/WX    TMP DP  RH WIND       PRES   REMARKS
PHILADELPHIA   CLOUDY    75  66  73 CALM      30.01F
ALLENTOWN      PTSUNNY   73  59  61 CALM      30.01R
SCRANTON       CLOUDY    69  55  60 SW7       30.01S
$$

CTZ002-004>006-009-010-012-RIZ004-006-007-MAZ004-011-015-261600-
SOUTHERN NEW ENGLAND
 IN CT

CITY           SKY/WX    TMP DP  RH WIND       PRES   REMARKS
BRADLEY INTL   PTSUNNY   81  56  42 SW7       29.95F
HARTFORD       MOSUNNY   80  53  39 W8        29.96F
DANBURY        PTSUNNY   75  57  53 SW12      30.01S
WTRBRY/OXFORD  NOT AVBL
BRIDGEPORT     PTSUNNY   76  60  57 SW9       29.99S
MERIDEN        MOSUNNY   80  57  45 VRB6      29.98F
NEW HAVEN      PTSUNNY   77  63  61 SW3       29.99S
CHESTER        FAIR      75  61  60 SW6       30.00F
GROTON         MOSUNNY   75  66  73 SW10      29.99S
WILLIMANTIC    MOSUNNY   80  59  48 VRB7      29.98F

 IN RI

CITY           SKY/WX    TMP DP  RH WIND       PRES   REMARKS
PROVIDENCE     PTSUNNY   79  64  60 S8        29.98F
BLOCK ISLAND   MOSUNNY   73  64  73 SW13      30.01S
WESTERLY       MOSUNNY   78  62  57 SW9       30.00S

 IN MA

CITY           SKY/WX    TMP DP  RH WIND       PRES   REMARKS
BOSTON         PTSUNNY   79  62  56 SW14      29.95F
WORCESTER      SUNNY     75  55  49 SW13      29.99S
WESTFIELD      SUNNY     80  57  45 VRB7      29.95F
PROVINCETOWN   MOSUNNY   75  68  78 CALM      29.99S
NANTUCKET      SUNNY     71  66  84 S9        30.02F
$$

ANZ330-335-338-340-345-350-353-355-261600-
COASTAL MARINE OBSERVATIONS


STATION/POSITION TIME  SKY/WX   TEMP    WIND        PRES    VSBY  WAVE
                                AIR SEA DIR/SP/G                  HT/PER
                 (UTC)          (F)     (DEG/KT/KT) (MB)    (MI)  (FT/S)
NY HARB ENTRANCE NOT AVBL
4S FIRE IS       NOT AVBL
23SW MTP         1500            73 71              1015.8          2/ 7
HUDSON CANYON    1500            73 74  240/  6/  8 1016.6          2/ 8
EXECUTION ROCKS  1500            76 72  230/ 10/ 14   N/A
WESTERN LI SOUND 1400            74     230/  2/  2   N/A           0
CENTRAL LI SOUND 1500            73 71  240/  6/  8   N/A           1/ 3
EASTERN LI SOUND 1400            74 68  240/  8/ 10   N/A
ROBBINS REEF     1500            75     230/ 13/ 15   N/A
$$


>>>>>>>>>>>>>>>>>>>>>>>>>>>> KEY <<<<<<<<<<<<<<<<<<<<<<<<<<<
>                                                          <
>     SKY/WX - SKY CONDITION/PRESENT WEATHER               <
>     TMP    - TEMPERATURE IN FAHRENHEIT                   <
>     DP     - DEWPOINT IN FAHRENHEIT                      <
>     RH     - RELATIVE HUMIDITY IN PERCENT                <
>     WIND   - DIRECTION AND SPEED IN MPH                  <
>     PRES   - MEAN SEA LEVEL PRESSURE IN INCHES OF HG     <
>     WCI    - WIND CHILL INDEX                            <
>     VSB    - VISIBILITY IN MILES                         <
>     HX     - HEAT INDEX                                  <
>     TC     - TEMPERATURE IN CELSIUS                      <
>     VRB    - VARIABLE WIND DIRECTION                     <
>                                                          <
>>>>>>>>>>>>>>>>>>>>>>>>>>>> KEY <<<<<<<<<<<<<<<<<<<<<<<<<<<




USA.gov is the U.S. government's official web portal to all federal, state and local government web resources and services.